Wind_Speed
4 4 5 2 3 5 3 3 1 6 5 6 15 4 8 5 1 4 16 10 12 13 16 12 11 13 15 11 12 14 20 19 18 15 16 17 16 17 16 15 14 12 15 17 17 18 18 17 18
3 4 3 2 5 4 2 3 4 3 8 26 16 12 7 4 5 17 15 15 11 16 17 14 13 16 16 17 17 22 26 22 21 18 15 16 17 16 15 14 14 12 16 14 16 14 14 14 15
3 2 2 3 3 3 2 3 10 11 12 9 7 12 5 3 15 18 19 17 18 20 19 18 17 18 17 18 16 20 18 16 14 15 13 16 15 14 13 11 12 13 15 15 14 13 15 16 16
1 1 2 4 6 2 5 4 9 7 13 8 17 7 7 4 14 18 21 20 22 21 20 19 17 17 15 16 13 14 14 13 14 14 14 13 13 14 14 13 10 13 14 13 13 12 13 13 13
3 1 4 4 3 2 4 9 7 3 6 10 7 5 9 3 17 22 22 21 20 19 17 13 12 12 11 11 13 12 13 13 14 14 14 13 13 12 12 11 11 12 13 13 13 11 11 11 11
2 1 4 4 4 3 4 8 10 6 10 15 14 12 4 9 20 22 21 21 17 16 15 13 12 12 11 11 11 14 12 12 13 13 13 14 13 13 13 13 12 12 13 14 11 11 12 11 11
2 2 2 8 5 3 2 15 7 10 14 9 14 7 9 17 20 22 21 19 16 15 14 13 11 12 12 11 13 15 11 12 13 13 13 15 15 15 14 14 13 12 13 12 11 9 9 9 11
1 2 3 3 6 3 7 5 10 19 7 17 15 6 10 25 21 21 21 18 15 14 14 13 12 10 11 15 15 16 14 11 14 14 14 16 18 18 17 16 15 13 12 12 9 7 6 6 8
2 3 3 2 4 3 10 5 4 6 18 3 2 19 27 27 22 21 20 18 16 14 15 12 12 11 11 12 14 14 12 11 13 16 16 18 19 18 18 18 16 15 13 12 9 6 4 4 6
3 3 2 0 1 2 7 10 7 9 9 8 20 20 26 26 23 22 22 20 19 17 16 15 13 12 11 11 13 14 13 13 14 16 17 17 15 14 13 12 12 11 10 9 8 6 4 4 5
2 3 4 2 4 4 6 12 7 19 2 15 28 31 26 25 23 21 21 19 19 17 16 15 14 12 12 10 12 14 14 13 14 14 15 14 12 11 10 9 10 8 8 7 6 5 5 5 9
4 8 4 3 4 4 4 1 13 6 4 27 29 30 29 26 24 21 20 20 19 18 16 16 16 14 13 14 13 16 15 13 14 14 13 11 9 9 9 9 10 13 10 12 11 10 9 9 13
3 8 7 8 5 1 6 2 4 4 9 27 28 28 28 24 24 20 17 17 18 19 18 17 17 16 14 16 15 12 13 13 13 12 10 9 6 6 9 10 11 10 9 9 9 8 9 9 9
6 6 7 4 4 1 4 2 8 13 19 28 30 30 28 25 23 21 21 21 21 18 17 19 18 17 17 14 12 11 12 13 11 10 7 6 5 6 8 7 7 6 7 8 7 6 5 6 3
7 4 4 4 6 3 2 2 9 27 26 29 31 29 28 26 24 22 22 22 21 19 16 18 19 18 16 13 12 13 12 9 7 6 6 7 5 6 6 5 4 7 5 4 4 5 5 4 4
4 3 2 2 5 3 3 2 3 29 29 26 28 28 28 26 26 21 20 19 19 19 19 20 20 18 16 15 14 14 12 8 6 8 6 7 6 6 8 8 7 5 3 6 6 5 4 4 3
6 3 5 6 6 8 3 2 3 28 29 25 25 27 27 23 24 23 20 19 17 22 23 21 18 18 17 15 13 11 8 6 6 9 4 10 5 8 7 7 8 7 5 4 5 5 4 2 3
4 4 3 5 6 7 16 10 9 19 23 23 23 25 25 29 27 24 23 20 17 21 21 18 16 15 19 18 14 14 11 7 6 7 8 5 2 6 5 4 6 4 4 3 4 3 3 1 3
6 5 7 7 3 3 9 6 12 11 15 12 23 24 31 32 28 26 24 22 19 18 19 20 19 17 20 19 14 15 11 7 9 8 9 5 6 8 5 3 2 2 1 2 4 3 3 4 5
5 5 4 3 8 5 1 7 9 13 16 21 25 27 31 30 28 27 27 24 22 19 19 21 21 18 19 16 14 14 11 11 12 10 8 5 8 7 5 3 2 2 2 1 2 2 3 4 6
1 4 4 5 9 6 5 5 3 6 9 6 22 30 30 38 34 31 30 28 24 24 21 20 21 23 21 17 15 16 14 13 12 9 7 5 6 7 6 3 3 1 2 3 3 5 5 3 4
3 8 9 11 14 3 5 3 4 7 12 8 8 31 30 37 36 33 33 31 28 25 23 19 19 19 21 20 15 15 16 15 12 10 7 7 6 7 8 4 3 3 2 3 4 2 3 3 4
2 11 3 4 3 2 4 1 3 12 10 16 17 28 34 38 39 36 36 32 30 26 24 23 20 20 21 20 17 14 15 13 11 12 10 8 8 5 6 6 4 5 5 3 3 2 1 1 3
15 8 3 4 2 1 1 4 3 9 16 17 19 24 30 41 41 37 34 33 31 29 24 23 24 23 24 22 19 20 15 13 11 13 12 9 9 9 8 6 6 6 7 6 6 4 3 2 4
5 6 1 4 3 4 4 3 7 11 15 25 25 27 33 38 39 39 36 36 34 32 27 25 25 24 25 23 19 20 19 16 13 12 12 13 12 11 10 10 9 7 7 9 8 8 6 5 3
7 8 4 4 3 3 2 4 5 7 12 21 31 29 34 40 41 40 38 36 35 32 28 27 24 26 24 21 22 20 20 20 16 15 14 13 13 12 12 12 11 9 9 9 10 8 8 7 6
5 4 3 6 1 1 3 6 5 3 1 9 23 34 38 37 43 42 40 39 37 33 30 27 24 24 24 22 20 23 21 21 19 17 16 14 15 14 14 13 12 14 11 11 11 11 10 9 7
8 8 3 4 3 4 4 4 2 5 3 4 17 25 24 31 37 41 41 41 39 34 31 27 25 21 20 20 20 23 23 22 20 20 17 17 15 15 15 15 14 13 13 12 12 12 10 11 10
4 1 5 5 5 4 0 4 4 6 1 7 10 17 23 30 37 39 40 38 40 35 34 31 27 23 21 19 18 20 23 22 20 17 18 18 16 18 16 15 16 19 17 17 14 14 12 10 12
4 6 6 5 6 2 1 3 5 5 7 2 9 15 23 29 34 40 40 40 39 37 35 34 31 27 22 19 17 17 20 21 21 20 17 18 17 16 17 18 15 14 20 19 18 15 12 11 13
Wind_Direction
112 27 11 17 64 65 48 359 47 111 125 166 151 133 117 64 45 153 137 152 147 150 148 140 135 132 123 121 125 126 122 109 117 116 109 103 109 109 104 103 97 92 102 95 98 92 93 89 84
80 355 358 354 77 67 346 346 70 30 115 119 105 102 56 73 102 134 137 144 152 147 146 138 131 129 120 105 108 124 112 107 104 107 106 104 107 101 101 97 98 96 101 99 97 91 89 82 80
72 4 8 84 104 110 126 59 116 116 129 121 109 81 81 84 131 133 138 135 134 136 142 137 134 129 117 104 84 86 96 112 114 96 106 103 101 95 94 99 98 101 106 100 101 96 91 82 78
43 53 67 71 83 72 120 157 115 99 84 70 105 74 71 129 127 136 135 134 133 134 140 139 136 135 128 115 96 107 109 113 113 112 105 102 101 99 95 91 100 111 110 102 97 91 92 91 81
18 49 63 76 70 60 90 140 134 75 86 99 96 91 102 109 139 138 137 138 138 143 146 147 148 149 140 127 116 102 101 106 107 107 102 99 98 99 99 103 102 107 113 111 109 103 99 97 81
34 62 73 108 94 67 82 145 96 88 98 99 93 102 98 145 144 143 138 141 140 144 150 151 144 139 134 129 115 96 93 99 102 104 98 97 97 96 97 99 101 107 113 118 111 109 104 87 74
98 77 122 115 119 108 99 141 153 106 107 72 128 105 133 157 151 147 144 146 147 144 142 140 133 133 133 134 122 120 105 109 114 104 100 100 96 96 96 99 103 108 122 125 123 112 92 77 57
83 103 96 51 152 124 138 127 153 108 81 126 119 150 158 164 155 151 155 155 153 145 135 133 132 131 131 133 135 131 121 119 112 110 106 104 102 99 100 102 104 110 122 138 135 122 90 57 37
22 62 97 61 130 94 141 120 170 109 132 107 123 150 154 157 158 160 160 165 163 156 144 145 146 146 139 135 136 138 136 121 123 118 112 111 108 103 99 96 97 100 107 118 130 124 92 44 26
75 75 66 67 63 342 149 142 130 118 124 97 122 148 154 163 168 169 170 173 173 163 158 159 156 153 144 148 138 144 138 129 131 124 123 119 112 100 91 93 101 107 111 111 107 93 72 39 17
66 103 143 83 70 13 129 137 130 132 161 167 148 156 164 169 173 176 177 181 173 166 167 164 162 158 140 144 133 141 136 132 137 133 128 120 108 99 102 94 97 105 108 105 98 86 70 59 58
100 95 103 141 78 25 58 3 134 166 202 166 159 158 165 174 177 177 179 182 181 178 175 172 165 160 149 142 140 140 136 138 143 136 131 119 108 93 93 96 95 112 104 102 94 89 83 73 76
74 158 169 131 151 346 330 312 164 88 169 165 164 169 172 174 178 179 178 177 179 171 173 172 169 162 154 149 148 142 139 137 142 141 139 130 103 95 106 107 112 125 118 102 89 85 91 86 91
161 178 169 191 168 130 358 117 145 204 177 170 170 178 182 179 181 183 184 175 172 162 162 167 168 164 159 156 155 155 141 130 133 142 144 141 121 117 117 121 128 134 136 104 88 92 100 89 95
89 102 108 102 161 69 80 206 199 194 177 169 176 182 187 190 187 189 186 184 173 172 168 167 162 164 168 167 166 157 147 133 129 165 148 141 119 122 124 112 140 149 125 78 56 79 99 127 109
84 110 168 90 136 59 354 251 204 181 169 175 178 187 191 197 197 194 192 190 190 186 178 164 166 165 163 166 168 162 152 134 94 141 143 148 140 127 122 100 127 129 82 77 86 95 135 135 115
12 99 84 82 23 10 302 320 168 173 175 180 182 188 193 200 205 206 196 191 192 188 177 177 177 178 180 168 170 168 166 146 123 153 122 157 132 140 122 88 126 114 108 73 68 89 136 151 132
187 121 80 95 16 2 313 255 159 187 179 183 184 188 194 204 206 205 198 195 191 189 187 187 178 177 172 176 181 177 170 163 150 157 172 164 160 158 128 106 128 130 69 40 22 50 63 92 352
137 121 112 110 23 53 326 322 180 161 203 212 194 190 199 207 207 209 200 198 198 199 199 194 185 178 180 182 179 178 173 172 165 149 151 159 146 166 154 146 128 161 204 347 335 341 354 330 356
172 162 155 104 150 156 204 282 175 175 233 222 192 195 200 205 207 208 201 199 202 203 197 198 195 197 194 191 192 196 188 166 157 154 155 139 164 168 167 181 187 163 203 253 284 296 315 350 343
190 264 154 159 177 230 186 287 123 229 247 192 199 201 197 205 204 205 206 201 201 204 196 193 200 199 204 206 207 192 189 183 178 181 161 154 159 174 181 184 220 257 250 243 261 262 296 319 333
110 356 218 155 157 232 207 198 214 206 210 218 204 200 202 203 207 205 206 204 204 206 202 196 198 206 200 203 201 203 205 202 210 208 198 188 180 179 202 196 225 250 252 256 280 269 296 304 310
77 69 4 82 89 107 193 106 229 169 209 206 218 209 202 206 205 206 207 208 206 206 207 202 197 199 196 200 211 219 204 214 227 219 212 208 202 212 219 214 237 256 255 269 280 332 22 297 293
148 95 14 28 107 330 213 180 216 192 209 198 213 208 199 200 205 207 211 209 211 210 210 210 205 206 206 212 223 219 213 215 214 213 216 233 228 217 216 218 229 246 247 258 267 280 266 302 343
94 86 214 338 0 236 289 170 258 207 187 190 200 193 200 200 202 206 210 211 213 212 210 211 211 214 216 222 224 223 223 218 219 225 239 245 233 239 234 236 239 235 246 249 259 268 274 276 318
178 140 170 142 313 307 283 237 261 190 194 202 204 192 195 199 201 206 210 213 214 212 210 209 212 215 220 224 226 226 227 226 239 235 240 241 235 241 248 246 241 251 256 248 248 270 267 264 263
199 131 199 102 144 4 241 277 313 69 72 232 193 183 192 196 201 207 211 213 214 212 213 210 211 214 221 227 230 224 223 230 241 242 246 245 245 245 247 248 250 249 252 262 243 251 259 258 257
144 138 93 8 6 278 272 268 134 336 176 120 172 189 191 198 201 205 210 211 214 213 216 213 215 216 222 226 230 229 229 233 240 243 241 244 249 249 247 236 247 243 242 254 247 246 254 248 249
126 191 52 108 167 214 281 292 344 267 219 141 150 187 193 205 208 208 211 215 215 216 221 217 215 214 221 225 231 230 232 233 237 242 243 241 248 246 237 243 247 242 244 248 252 243 239 256 251
163 158 158 128 213 231 145 309 331 5 30 62 170 202 213 216 216 213 211 209 214 217 223 222 222 216 220 221 230 237 232 233 236 241 243 247 247 245 240 246 252 246 243 245 248 247 237 263 249
Height
1506 1506 1505 1506 1514 1515 1524 1519 1510 1514 1517 1517 1521 1524 1527 1531 1532 1543 1537 1539 1541 1543 1544 1546 1546 1548 1549 1549 1551 1551 1552 1552 1555 1557 1559 1559 1560 1562 1563 1564 1566 1565 1566 1567 1567 1568 1570 1571 1570
1506 1506 1506 1505 1521 1533 1530 1514 1517 1515 1515 1517 1522 1525 1528 1533 1532 1534 1538 1541 1543 1545 1547 1549 1549 1551 1552 1553 1553 1554 1554 1557 1557 1559 1560 1561 1564 1565 1566 1568 1567 1569 1569 1570 1570 1572 1573 1573 1572
1506 1506 1507 1509 1523 1533 1531 1518 1516 1517 1518 1518 1523 1526 1530 1535 1534 1536 1540 1542 1545 1547 1550 1553 1553 1554 1555 1555 1554 1556 1558 1561 1563 1561 1563 1565 1567 1569 1569 1570 1570 1571 1571 1573 1575 1576 1575 1575 1576
1506 1507 1508 1515 1523 1517 1517 1518 1517 1518 1519 1519 1523 1529 1534 1537 1537 1540 1542 1545 1547 1550 1553 1555 1557 1557 1557 1559 1560 1562 1562 1563 1565 1567 1568 1570 1570 1572 1573 1572 1573 1574 1574 1576 1577 1577 1577 1578 1577
1506 1506 1512 1520 1520 1516 1516 1517 1519 1518 1521 1523 1524 1534 1537 1540 1540 1543 1545 1548 1551 1553 1555 1557 1559 1560 1560 1562 1563 1564 1566 1567 1568 1571 1571 1572 1573 1574 1575 1575 1576 1576 1576 1577 1579 1579 1579 1579 1580
1506 1507 1518 1527 1521 1517 1518 1519 1521 1521 1523 1526 1531 1533 1540 1542 1544 1546 1548 1551 1554 1556 1557 1559 1559 1561 1562 1564 1565 1568 1568 1570 1571 1571 1573 1575 1576 1576 1577 1577 1577 1578 1579 1580 1581 1581 1581 1582 1583
1506 1510 1517 1515 1522 1521 1520 1521 1522 1521 1525 1529 1531 1535 1542 1544 1546 1547 1550 1553 1556 1559 1560 1561 1563 1564 1564 1567 1569 1571 1572 1571 1573 1574 1576 1577 1578 1579 1579 1580 1580 1580 1581 1582 1582 1583 1584 1585 1586
1507 1508 1514 1516 1522 1523 1520 1522 1523 1521 1527 1530 1533 1538 1541 1543 1546 1549 1552 1555 1557 1560 1563 1564 1566 1566 1568 1569 1571 1573 1574 1575 1576 1577 1579 1579 1580 1581 1582 1582 1583 1583 1583 1584 1584 1586 1586 1587 1588
1507 1514 1520 1522 1519 1521 1520 1523 1526 1525 1528 1532 1533 1535 1537 1542 1547 1550 1554 1557 1559 1562 1564 1565 1566 1568 1569 1571 1573 1575 1577 1577 1579 1579 1581 1582 1582 1583 1585 1585 1586 1586 1586 1586 1587 1587 1588 1589 1589
1507 1517 1521 1520 1521 1521 1520 1523 1525 1527 1532 1535 1534 1538 1541 1543 1547 1550 1553 1556 1559 1562 1565 1567 1568 1570 1572 1574 1576 1578 1579 1581 1581 1582 1584 1584 1585 1586 1587 1589 1589 1589 1588 1588 1588 1589 1590 1591 1591
1509 1516 1518 1521 1521 1520 1521 1524 1525 1528 1534 1533 1534 1538 1542 1545 1548 1551 1555 1557 1560 1563 1566 1568 1571 1573 1575 1578 1578 1579 1581 1583 1584 1585 1586 1587 1589 1590 1591 1591 1591 1590 1591 1591 1590 1591 1592 1592 1592
1513 1516 1520 1522 1522 1523 1523 1526 1528 1528 1532 1534 1536 1538 1541 1545 1549 1552 1555 1558 1560 1563 1567 1569 1572 1574 1577 1579 1580 1582 1584 1585 1586 1588 1589 1590 1592 1593 1594 1594 1594 1593 1594 1593 1593 1594 1594 1594 1594
1512 1518 1520 1522 1524 1525 1525 1526 1529 1531 1533 1536 1539 1543 1544 1546 1550 1553 1556 1559 1562 1564 1567 1570 1572 1575 1578 1580 1582 1584 1585 1587 1588 1590 1591 1593 1594 1595 1596 1596 1595 1594 1595 1595 1595 1596 1596 1596 1596
1514 1516 1519 1522 1525 1525 1527 1528 1529 1534 1537 1538 1539 1543 1546 1547 1551 1555 1556 1559 1562 1565 1568 1570 1573 1576 1579 1582 1584 1586 1588 1589 1591 1592 1594 1595 1596 1597 1597 1597 1597 1596 1596 1597 1597 1597 1598 1597 1595
1514 1520 1521 1523 1526 1528 1529 1530 1530 1533 1538 1539 1541 1543 1547 1550 1552 1555 1558 1560 1563 1566 1569 1571 1574 1577 1581 1583 1586 1588 1590 1592 1593 1594 1595 1596 1597 1598 1598 1599 1599 1598 1598 1598 1598 1599 1598 1597 1596
1519 1521 1528 1526 1528 1529 1533 1533 1527 1531 1536 1538 1541 1544 1547 1550 1553 1556 1560 1562 1564 1567 1569 1573 1575 1578 1581 1584 1587 1589 1590 1592 1593 1593 1595 1597 1598 1599 1600 1600 1600 1600 1599 1598 1599 1600 1598 1598 1598
1526 1532 1530 1528 1531 1533 1535 1535 1528 1531 1535 1538 1540 1543 1547 1551 1553 1556 1560 1563 1565 1567 1570 1573 1576 1579 1581 1584 1588 1590 1591 1593 1594 1595 1596 1598 1599 1600 1601 1601 1601 1602 1601 1600 1600 1600 1600 1599 1599
1533 1536 1533 1537 1539 1537 1539 1533 1530 1533 1534 1538 1541 1544 1547 1548 1550 1555 1559 1563 1565 1567 1571 1574 1576 1579 1582 1584 1587 1590 1591 1593 1594 1596 1597 1599 1599 1600 1601 1601 1602 1603 1602 1601 1601 1601 1601 1600 1600
1520 1528 1533 1538 1538 1537 1539 1531 1529 1531 1536 1538 1540 1543 1545 1545 1551 1555 1559 1562 1565 1567 1570 1573 1576 1579 1581 1584 1587 1590 1592 1593 1595 1597 1598 1599 1600 1601 1601 1602 1602 1603 1603 1602 1601 1602 1602 1601 1601
1517 1523 1531 1535 1538 1540 1538 1536 1533 1535 1537 1536 1537 1540 1543 1547 1550 1553 1558 1561 1564 1567 1570 1573 1576 1579 1582 1585 1588 1591 1592 1593 1595 1597 1598 1600 1601 1602 1602 1603 1603 1603 1603 1603 1602 1603 1603 1602 1602
1515 1520 1526 1525 1533 1537 1537 1534 1533 1534 1534 1534 1534 1538 1540 1542 1546 1551 1555 1559 1562 1566 1569 1571 1575 1579 1582 1585 1587 1590 1592 1594 1595 1597 1598 1600 1602 1602 1603 1603 1603 1603 1603 1604 1604 1604 1604 1604 1603
1519 1515 1517 1521 1531 1539 1530 1544 1536 1526 1531 1531 1533 1534 1536 1539 1544 1548 1553 1556 1559 1563 1568 1572 1574 1578 1581 1585 1587 1590 1593 1594 1595 1597 1598 1600 1601 1602 1602 1603 1604 1604 1604 1605 1605 1605 1605 1604 1603
1518 1512 1522 1525 1534 1532 1534 1540 1524 1526 1530 1526 1528 1529 1530 1535 1539 1544 1548 1553 1557 1562 1566 1570 1574 1577 1581 1584 1587 1589 1592 1594 1595 1597 1598 1599 1601 1601 1602 1603 1603 1604 1604 1605 1605 1605 1605 1604 1604
1509 1518 1531 1531 1535 1544 1531 1533 1526 1525 1511 1517 1524 1526 1528 1530 1536 1541 1547 1552 1557 1561 1566 1569 1573 1576 1579 1582 1585 1588 1590 1592 1594 1596 1597 1599 1600 1601 1601 1602 1603 1603 1603 1604 1604 1605 1605 1605 1604
1511 1525 1546 1552 1550 1547 1534 1533 1515 1504 1504 1507 1513 1518 1523 1528 1533 1538 1544 1549 1553 1558 1563 1568 1571 1574 1577 1580 1583 1585 1588 1591 1593 1595 1596 1597 1599 1600 1601 1602 1602 1603 1603 1603 1603 1604 1605 1605 1604
1510 1519 1535 1550 1557 1544 1533 1533 1512 1495 1499 1505 1511 1514 1519 1523 1529 1533 1539 1545 1550 1555 1560 1564 1568 1571 1574 1577 1580 1583 1585 1588 1591 1593 1595 1596 1598 1599 1600 1601 1601 1602 1602 1602 1602 1603 1604 1604 1604
1511 1522 1516 1534 1543 1548 1532 1518 1502 1500 1501 1502 1505 1507 1511 1517 1521 1527 1534 1541 1547 1553 1556 1560 1564 1568 1571 1574 1577 1579 1582 1585 1588 1590 1592 1594 1595 1597 1598 1599 1600 1601 1602 1602 1602 1602 1603 1604 1604
1498 1509 1526 1541 1555 1552 1531 1522 1515 1508 1503 1500 1501 1506 1512 1515 1519 1523 1528 1536 1543 1549 1553 1558 1562 1565 1568 1571 1574 1576 1579 1582 1585 1587 1589 1591 1593 1594 1595 1597 1598 1599 1600 1600 1601 1601 1601 1602 1603
1510 1514 1523 1525 1532 1545 1536 1522 1513 1509 1502 1501 1504 1507 1510 1513 1517 1522 1527 1534 1539 1545 1551 1553 1557 1561 1565 1568 1571 1573 1576 1579 1582 1583 1586 1588 1590 1591 1593 1595 1596 1596 1597 1598 1598 1599 1600 1600 1601
1497 1504 1512 1530 1531 1533 1529 1526 1513 1509 1506 1504 1503 1506 1509 1512 1514 1520 1524 1530 1536 1540 1546 1551 1555 1557 1561 1564 1567 1570 1572 1576 1578 1580 1582 1586 1588 1588 1589 1592 1592 1593 1594 1595 1596 1597 1598 1598 1598